TimeAKDT,TemperatureF,Dew PointF,Humidity,Sea Level PressureIn,VisibilityMPH,Wind Direction,Wind SpeedMPH,Gust SpeedMPH,PrecipitationIn,Events,Conditions,WindDirDegrees,DateUTC
12:16 AM,26.6,21.2,80,29.76,10.0,Calm,Calm,-,N/A,,Clear,0,2013-09-24 08:16:00
12:36 AM,28.4,23.0,80,29.76,10.0,ENE,4.6,-,N/A,,Clear,70,2013-09-24 08:36:00
12:56 AM,28.4,21.2,74,29.77,10.0,ENE,4.6,-,N/A,,Clear,70,2013-09-24 08:56:00
1:16 AM,28.4,21.2,74,29.78,10.0,East,4.6,-,N/A,,Clear,90,2013-09-24 09:16:00
1:36 AM,28.4,21.2,74,29.79,10.0,East,4.6,-,N/A,,Clear,80,2013-09-24 09:36:00
1:56 AM,28.4,23.0,80,29.79,10.0,East,4.6,-,N/A,,Clear,80,2013-09-24 09:56:00
2:16 AM,28.4,21.2,74,29.80,10.0,ENE,4.6,-,N/A,,Clear,70,2013-09-24 10:16:00
2:36 AM,26.6,21.2,80,29.81,10.0,Calm,Calm,-,N/A,,Clear,0,2013-09-24 10:36:00
2:56 AM,24.8,19.4,80,29.82,10.0,Calm,Calm,-,N/A,,Clear,0,2013-09-24 10:56:00
3:16 AM,24.8,19.4,80,29.83,10.0,Calm,Calm,-,N/A,,Clear,0,2013-09-24 11:16:00
3:36 AM,26.6,23.0,86,29.83,10.0,East,3.5,-,N/A,,Clear,80,2013-09-24 11:36:00
3:56 AM,26.6,24.8,93,29.84,10.0,East,3.5,-,N/A,,Clear,80,2013-09-24 11:56:00
4:16 AM,26.6,21.2,80,29.84,10.0,East,4.6,-,N/A,,Clear,80,2013-09-24 12:16:00
4:36 AM,24.8,19.4,80,29.84,10.0,East,4.6,-,N/A,,Clear,80,2013-09-24 12:36:00
4:56 AM,26.6,21.2,80,29.86,10.0,East,3.5,-,N/A,,Clear,90,2013-09-24 12:56:00
5:16 AM,26.6,21.2,80,29.87,10.0,East,3.5,-,N/A,,Clear,100,2013-09-24 13:16:00
5:36 AM,26.6,21.2,80,29.87,10.0,East,3.5,-,N/A,,Clear,100,2013-09-24 13:36:00
5:56 AM,26.6,21.2,80,29.87,10.0,ENE,3.5,-,N/A,,Clear,70,2013-09-24 13:56:00
6:16 AM,26.6,21.2,80,29.89,10.0,Calm,Calm,-,N/A,,Clear,0,2013-09-24 14:16:00
6:36 AM,24.8,19.4,80,29.90,10.0,Calm,Calm,-,N/A,,Clear,0,2013-09-24 14:36:00
6:56 AM,24.8,19.4,80,29.90,10.0,ENE,3.5,-,N/A,,Clear,60,2013-09-24 14:56:00
7:16 AM,23.0,19.4,86,29.91,10.0,Calm,Calm,-,N/A,,Clear,0,2013-09-24 15:16:00
7:36 AM,24.8,19.4,80,29.91,10.0,Calm,Calm,-,N/A,,Clear,0,2013-09-24 15:36:00
7:56 AM,23.0,17.6,80,29.91,10.0,ENE,3.5,-,N/A,,Clear,60,2013-09-24 15:56:00
8:16 AM,21.2,19.4,93,29.92,10.0,Calm,Calm,-,N/A,,Clear,0,2013-09-24 16:16:00
8:36 AM,24.8,19.4,80,29.92,10.0,Calm,Calm,-,N/A,,Clear,0,2013-09-24 16:36:00
8:56 AM,24.8,21.2,86,29.92,10.0,East,5.8,-,N/A,,Clear,100,2013-09-24 16:56:00
9:16 AM,26.6,23.0,86,29.93,10.0,East,4.6,-,N/A,,Clear,100,2013-09-24 17:16:00
9:36 AM,28.4,24.8,86,29.93,10.0,East,5.8,-,N/A,,Clear,90,2013-09-24 17:36:00
9:56 AM,30.2,24.8,80,29.93,10.0,ESE,5.8,-,N/A,,Clear,110,2013-09-24 17:56:00
10:16 AM,33.8,26.6,75,29.93,10.0,East,4.6,-,N/A,,Clear,90,2013-09-24 18:16:00
10:36 AM,35.6,26.6,70,29.93,10.0,East,3.5,-,N/A,,Clear,90,2013-09-24 18:36:00
10:56 AM,37.4,26.6,65,29.94,10.0,NE,6.9,-,N/A,,Clear,40,2013-09-24 18:56:00
11:16 AM,37.4,26.6,65,29.94,10.0,ESE,8.1,-,N/A,,Clear,110,2013-09-24 19:16:00
11:36 AM,37.4,28.4,70,29.94,8.0,ESE,6.9,-,N/A,,Clear,110,2013-09-24 19:36:00
11:56 AM,39.2,26.6,61,29.95,10.0,ENE,11.5,-,N/A,,Clear,60,2013-09-24 19:56:00
12:16 PM,39.2,26.6,61,29.95,10.0,NE,8.1,-,N/A,,Clear,40,2013-09-24 20:16:00
12:36 PM,41.0,28.4,61,29.95,10.0,NE,5.8,-,N/A,,Clear,50,2013-09-24 20:36:00
12:56 PM,41.0,26.6,57,29.95,10.0,NNE,5.8,-,N/A,,Clear,20,2013-09-24 20:56:00
1:16 PM,41.0,26.6,57,29.95,10.0,NNE,6.9,-,N/A,,Clear,30,2013-09-24 21:16:00
1:36 PM,42.8,26.6,53,29.95,10.0,NE,5.8,-,N/A,,Clear,50,2013-09-24 21:36:00
1:56 PM,42.8,26.6,53,29.95,10.0,ENE,8.1,-,N/A,,Clear,60,2013-09-24 21:56:00
2:16 PM,42.8,26.6,53,29.95,10.0,NE,8.1,-,N/A,,Clear,50,2013-09-24 22:16:00
2:36 PM,42.8,26.6,53,29.95,10.0,ENE,8.1,-,N/A,,Clear,70,2013-09-24 22:36:00
2:56 PM,42.8,26.6,53,29.94,10.0,NE,6.9,-,N/A,,Clear,50,2013-09-24 22:56:00
3:16 PM,42.8,26.6,53,29.94,10.0,ENE,5.8,-,N/A,,Clear,70,2013-09-24 23:16:00
3:36 PM,42.8,28.4,57,29.94,10.0,NE,6.9,-,N/A,,Clear,40,2013-09-24 23:36:00
3:56 PM,42.8,28.4,57,29.93,10.0,ENE,5.8,-,N/A,,Partly Cloudy,70,2013-09-24 23:56:00
4:16 PM,42.8,28.4,57,29.93,10.0,ENE,6.9,-,N/A,,Clear,60,2013-09-25 00:16:00
4:36 PM,42.8,28.4,57,29.93,10.0,NE,4.6,-,N/A,,Clear,50,2013-09-25 00:36:00
4:56 PM,42.8,28.4,57,29.91,10.0,ENE,6.9,-,N/A,,Mostly Cloudy,70,2013-09-25 00:56:00
5:16 PM,42.8,28.4,57,29.92,10.0,NNE,3.5,-,N/A,,Overcast,30,2013-09-25 01:16:00
5:36 PM,42.8,28.4,57,29.91,10.0,NE,4.6,-,N/A,,Overcast,40,2013-09-25 01:36:00
5:56 PM,42.8,28.4,57,29.91,10.0,NE,4.6,-,N/A,,Overcast,50,2013-09-25 01:56:00
6:16 PM,42.8,28.4,57,29.91,10.0,NNE,3.5,-,N/A,,Overcast,30,2013-09-25 02:16:00
6:36 PM,42.8,28.4,57,29.92,10.0,NNE,3.5,-,N/A,,Overcast,20,2013-09-25 02:36:00
6:56 PM,42.8,28.4,57,29.90,10.0,NNE,3.5,-,N/A,,Overcast,30,2013-09-25 02:56:00
7:16 PM,42.8,28.4,57,29.89,10.0,NNE,3.5,-,N/A,,Overcast,20,2013-09-25 03:16:00
7:36 PM,42.8,28.4,57,29.89,10.0,Calm,Calm,-,N/A,,Overcast,0,2013-09-25 03:36:00
7:56 PM,42.8,30.2,61,29.89,10.0,Calm,Calm,-,N/A,,Overcast,0,2013-09-25 03:56:00
8:16 PM,41.0,30.2,65,29.88,10.0,NE,3.5,-,N/A,,Overcast,50,2013-09-25 04:16:00
8:36 PM,41.0,30.2,65,29.87,10.0,ENE,3.5,-,N/A,,Overcast,70,2013-09-25 04:36:00
8:56 PM,41.0,30.2,65,29.87,10.0,Calm,Calm,-,N/A,,Overcast,0,2013-09-25 04:56:00
9:16 PM,41.0,30.2,65,29.86,10.0,Calm,Calm,-,N/A,,Overcast,0,2013-09-25 05:16:00
9:36 PM,41.0,30.2,65,29.86,10.0,Calm,Calm,-,N/A,,Overcast,0,2013-09-25 05:36:00
9:56 PM,41.0,30.2,65,29.85,10.0,Calm,Calm,-,N/A,,Overcast,0,2013-09-25 05:56:00
10:16 PM,39.2,32.0,75,29.85,10.0,Calm,Calm,-,N/A,,Overcast,0,2013-09-25 06:16:00
10:36 PM,39.2,33.8,81,29.83,10.0,East,3.5,-,N/A,,Overcast,100,2013-09-25 06:36:00
10:56 PM,39.2,33.8,81,29.83,10.0,Calm,Calm,-,N/A,,Overcast,0,2013-09-25 06:56:00
11:16 PM,39.2,35.6,87,29.83,10.0,Calm,Calm,-,N/A,,Overcast,0,2013-09-25 07:16:00
11:36 PM,39.2,35.6,87,29.82,7.0,Calm,Calm,-,0.02,,Overcast,0,2013-09-25 07:36:00
11:56 PM,39.2,35.6,87,29.81,8.0,Calm,Calm,-,0.05,,Overcast,0,2013-09-25 07:56:00